| time (UTC) | temp F | wind direction | speed knots | gust knots | rain 1hr in | rain 24hr in | rain mn in | humidity % | barometer mb |
| 20260502123017 | 31 | 210 | 0.9 | 6.1 | 0.00 | 0.00 | 0.00 | 43 | 1026.6 |
| 20260502113016 | 31 | 203 | 1.7 | 7.0 | 0.00 | 0.00 | 0.00 | 42 | 1026.8 |
| 20260502110016 | 32 | 201 | 1.7 | 7.0 | 0.00 | 0.00 | 0.00 | 40 | 1027.7 |
| 20260502103016 | 32 | 202 | 1.7 | 7.0 | 0.00 | 0.00 | 0.00 | 40 | 1027.7 |
| 20260502070016 | 33 | 201 | 2.6 | 9.6 | 0.00 | 0.00 | 0.00 | 44 | 1026.7 |
| 20260502063015 | 33 | 199 | 2.6 | 9.6 | 0.00 | 0.00 | 0.00 | 45 | 1026.7 |
| 20260502060015 | 34 | 196 | 1.7 | 7.8 | 0.00 | 0.00 | 0.00 | 44 | 1026.1 |
| 20260502053037 | 34 | 197 | 2.6 | 8.7 | 0.00 | 0.00 | 0.00 | 43 | 1026.1 |
| 20260502050016 | 35 | 196 | 2.6 | 8.7 | 0.00 | 0.00 | 0.00 | 40 | 1026.4 |
| 20260502043056 | 36 | 199 | 1.7 | 5.2 | 0.00 | 0.00 | 0.00 | 38 | 1026.3 |
| 20260502040016 | 37 | 183 | 1.7 | 4.3 | 0.00 | 0.00 | 0.00 | 37 | 1026.3 |
| 20260502033016 | 37 | 167 | 0.9 | 4.3 | 0.00 | 0.00 | 0.00 | 37 | 1026.0 |
| 20260502030015 | 37 | 85 | 0.0 | 6.1 | 0.00 | 0.00 | 0.00 | 37 | 1025.1 |
| 20260502023015 | 40 | 82 | 0.9 | 8.7 | 0.00 | 0.00 | 0.00 | 35 | 1025.1 |
| 20260502020016 | 41 | 86 | 2.6 | 9.6 | 0.00 | 0.00 | 0.00 | 34 | 1024.1 |
| 20260502013015 | 42 | 75 | 3.5 | 10.4 | 0.00 | 0.00 | 0.00 | 32 | 1024.0 |
| 20260502010015 | 43 | 69 | 4.3 | 13.9 | 0.00 | 0.00 | 0.00 | 30 | 1023.3 |
| 20260502003015 | 44 | 86 | 6.1 | 13.9 | 0.00 | 0.00 | 0.00 | 29 | 1023.4 |
| 20260502000015 | 44 | 74 | 5.2 | 11.3 | 0.00 | 0.00 | 0.00 | 27 | 1024.2 |
| 20260501233015 | 45 | 75 | 5.2 | 13.0 | 0.00 | 0.00 | 0.00 | 31 | 1024.8 |
| 20260501230015 | 45 | 70 | 6.1 | 13.0 | 0.00 | 0.00 | 0.00 | 32 | 1024.7 |
| 20260501223015 | 46 | 62 | 5.2 | 13.9 | 0.00 | 0.00 | 0.00 | 32 | 1025.5 |
| 20260501220015 | 46 | 72 | 6.1 | 14.8 | 0.00 | 0.00 | 0.00 | 35 | 1025.7 |
| 20260501213017 | 45 | 72 | 6.1 | 14.8 | 0.00 | 0.00 | 0.00 | 35 | 1025.9 |
| 20260501210017 | 45 | 77 | 7.0 | 14.8 | 0.00 | 0.00 | 0.00 | 33 | 1026.1 |
| 20260501203017 | 44 | 83 | 6.1 | 13.0 | 0.00 | 0.00 | 0.00 | 32 | 1026.1 |
| 20260501200016 | 43 | 86 | 6.1 | 13.0 | 0.00 | 0.00 | 0.00 | 38 | 1025.6 |
| 20260501193037 | 43 | 88 | 6.1 | 15.6 | 0.00 | 0.00 | 0.00 | 34 | 1026.4 |
| 20260501190017 | 41 | 85 | 7.0 | 15.6 | 0.00 | 0.00 | 0.00 | 37 | 1025.8 |
| 20260501183017 | 40 | 91 | 7.0 | 14.8 | 0.00 | 0.00 | 0.00 | 36 | 1026.1 |
| 20260501180016 | 39 | 87 | 7.8 | 18.2 | 0.00 | 0.00 | 0.00 | 35 | 1025.7 |
| 20260501173016 | 39 | 82 | 8.7 | 18.2 | 0.00 | 0.00 | 0.00 | 38 | 1025.9 |
| 20260501170016 | 38 | 83 | 8.7 | 15.6 | 0.00 | 0.00 | 0.00 | 40 | 1025.8 |
| 20260501163016 | 37 | 85 | 7.8 | 16.5 | 0.00 | 0.00 | 0.00 | 40 | 1025.2 |
| 20260501160016 | 36 | 99 | 7.8 | 16.5 | 0.00 | 0.00 | 0.00 | 40 | 1025.0 |
| 20260501153017 | 35 | 89 | 8.7 | 14.8 | 0.00 | 0.01 | 0.00 | 44 | 1025.0 |
| 20260501150016 | 34 | 103 | 7.8 | 13.0 | 0.00 | 0.01 | 0.00 | 48 | 1025.7 |
| 20260501143016 | 33 | 119 | 6.1 | 10.4 | 0.00 | 0.01 | 0.00 | 52 | 1025.0 |